22-10-2023, 00:00:02,    250,    0.0,    5.6,   0.00,   0.00,  996.0,    0.6, -999.0
22-10-2023, 00:00:12,    250,    0.8,    5.7,   0.00,   0.00,  996.1,    0.4, -999.0
22-10-2023, 00:00:23,    250,    0.0,    5.6,   0.00,   0.00,  996.0,    0.6, -999.0
22-10-2023, 00:00:32,    250,    0.0,    5.7,   0.00,   0.00,  996.0,    0.4, -999.0
22-10-2023, 00:00:42,    250,    0.0,    5.7,   0.00,   0.00,  996.0,    0.6, -999.0
22-10-2023, 00:00:53,    250,    0.0,    5.7,   0.00,   0.00,  996.0,    0.5, -999.0
22-10-2023, 00:01:02,    250,    0.0,    5.7,   0.00,   0.00,  996.1,    0.5, -999.0
22-10-2023, 00:01:12,    250,    0.1,    5.7,   0.00,   0.00,  996.1,    0.5, -999.0
22-10-2023, 00:01:22,    250,    0.0,    5.6,   0.00,   0.00,  996.0,    0.5, -999.0
22-10-2023, 00:01:32,    250,    0.0,    5.7,   0.00,   0.00,  996.1,    0.5, -999.0
22-10-2023, 00:01:42,    250,    0.0,    5.7,   0.00,   0.00,  996.1,    0.5, -999.0
22-10-2023, 00:01:52,    250,    0.0,    5.6,   0.00,   0.00,  996.1,    0.5, -999.0
22-10-2023, 00:02:02,    250,    0.0,    5.6,   0.00,   0.00,  996.1,    0.5, -999.0
22-10-2023, 00:02:12,    249,    0.1,    5.7,   0.00,   0.00,  996.1,    0.6, -999.0
22-10-2023, 00:02:22,    250,    0.0,    5.7,   0.00,   0.00,  996.1,    0.4, -999.0
22-10-2023, 00:02:32,    254,    0.3,    5.7,   0.00,   0.00,  996.2,    0.4, -999.0
22-10-2023, 00:02:42,    256,    1.6,    5.8,   0.00,   0.00,  996.2,    0.6, -999.0
22-10-2023, 00:02:52,    253,    0.9,    5.8,   0.00,   0.00,  996.3,    0.6, -999.0
22-10-2023, 00:03:02,    252,    0.5,    5.8,   0.00,   0.00,  996.2,    0.5, -999.0
22-10-2023, 00:03:12,    251,    0.0,    5.6,   0.00,   0.00,  996.1,    0.5, -999.0
22-10-2023, 00:03:22,    252,    0.0,    5.6,   0.00,   0.00,  996.1,    0.7, -999.0
22-10-2023, 00:03:32,    252,    0.0,    5.7,   0.00,   0.00,  996.1,    0.3, -999.0
22-10-2023, 00:03:42,    251,    0.0,    5.7,   0.00,   0.00,  996.1,    0.6, -999.0
22-10-2023, 00:03:52,    251,    0.0,    5.7,   0.00,   0.00,  996.1,    0.3, -999.0
22-10-2023, 00:04:02,    253,    0.0,    5.6,   0.00,   0.00,  996.1,    0.6, -999.0
22-10-2023, 00:04:12,    255,    0.1,    5.7,   0.00,   0.00,  996.2,    0.6, -999.0
22-10-2023, 00:04:22,    252,    0.1,    5.8,   0.00,   0.00,  996.2,    0.5, -999.0
22-10-2023, 00:04:32,    241,    0.8,    5.7,   0.00,   0.00,  996.3,    0.2, -999.0
22-10-2023, 00:04:42,    223,    0.4,    5.7,   0.00,   0.00,  996.2,    0.7, -999.0
22-10-2023, 00:04:52,    237,    0.5,    5.8,   0.00,   0.00,  996.3,    0.2, -999.0
22-10-2023, 00:05:02,    237,    0.0,    5.7,   0.00,   0.00,  996.1,    0.5, -999.0
22-10-2023, 00:05:12,    237,    0.0,    5.7,   0.00,   0.00,  996.1,    0.6, -999.0
22-10-2023, 00:05:22,    238,    0.0,    5.6,   0.00,   0.00,  996.1,    0.7, -999.0
22-10-2023, 00:05:32,    222,    0.7,    5.7,   0.00,   0.00,  996.3,    0.6, -999.0
22-10-2023, 00:05:42,    223,    0.5,    5.7,   0.00,   0.00,  996.3,    1.1, -999.0
22-10-2023, 00:05:51,    222,    0.1,    5.7,   0.00,   0.00,  996.2,    0.5, -999.0
22-10-2023, 00:06:02,    222,    0.0,    5.6,   0.00,   0.00,  996.1,    0.6, -999.0
22-10-2023, 00:06:12,    222,    0.0,    5.6,   0.00,   0.00,  996.2,    0.6, -999.0
22-10-2023, 00:06:22,    222,    0.0,    5.6,   0.00,   0.00,  996.2,    0.2, -999.0
22-10-2023, 00:06:31,    231,    0.3,    5.7,   0.00,   0.00,  996.2,    0.6, -999.0
22-10-2023, 00:06:42,    266,    0.8,    5.7,   0.00,   0.00,  996.3,    0.7, -999.0
22-10-2023, 00:06:52,    266,    0.0,    5.6,   0.00,   0.00,  996.2,    0.0, -999.0
22-10-2023, 00:07:01,    266,    0.0,    5.6,   0.00,   0.00,  996.2,    0.4, -999.0
22-10-2023, 00:07:11,    266,    0.0,    5.6,   0.00,   0.00,  996.2,    0.6, -999.0
22-10-2023, 00:07:22,    266,    0.0,    5.6,   0.00,   0.00,  996.2,    0.5, -999.0
22-10-2023, 00:07:32,    265,    0.0,    5.6,   0.00,   0.00,  996.3,    0.8, -999.0
22-10-2023, 00:07:41,    266,    0.0,    5.6,   0.00,   0.00,  996.2,    0.6, -999.0
22-10-2023, 00:07:51,    266,    0.0,    5.6,   0.00,   0.00,  996.2,    0.7, -999.0
22-10-2023, 00:08:02,    266,    0.0,    5.6,   0.00,   0.00,  996.2,    0.6, -999.0
22-10-2023, 00:08:11,    266,    0.0,    5.6,   0.00,   0.00,  996.3,    0.5, -999.0
22-10-2023, 00:08:21,    266,    0.0,    5.7,   0.00,   0.00,  996.2,    0.6, -999.0
22-10-2023, 00:08:31,    266,    0.0,    5.6,   0.00,   0.00,  996.2,    0.5, -999.0
22-10-2023, 00:08:41,    266,    0.0,    5.6,   0.00,   0.00,  996.2,    0.4, -999.0
22-10-2023, 00:08:51,    265,    0.0,    5.6,   0.00,   0.00,  996.2,    0.5, -999.0
22-10-2023, 00:09:01,    265,    0.0,    5.6,   0.00,   0.00,  996.3,    0.5, -999.0
22-10-2023, 00:09:11,    265,    0.0,    5.6,   0.00,   0.00,  996.3,    0.5, -999.0
22-10-2023, 00:09:21,    264,    0.0,    5.6,   0.00,   0.00,  996.3,    0.5, -999.0
22-10-2023, 00:09:31,    264,    0.0,    5.7,   0.00,   0.00,  996.3,    0.5, -999.0
22-10-2023, 00:09:41,    264,    0.0,    5.6,   0.00,   0.00,  996.3,    0.6, -999.0
22-10-2023, 00:09:51,    264,    0.0,    5.6,   0.00,   0.00,  996.3,    0.6, -999.0
22-10-2023, 00:10:01,    264,    0.0,    5.6,   0.00,   0.00,  996.3,    0.5, -999.0
22-10-2023, 00:10:11,    264,    0.0,    5.6,   0.00,   0.00,  996.3,    0.5, -999.0
22-10-2023, 00:10:21,    264,    0.0,    5.6,   0.00,   0.00,  996.3,    0.5, -999.0
22-10-2023, 00:10:31,    264,    0.0,    5.5,   0.00,   0.00,  996.3,    0.4, -999.0
22-10-2023, 00:10:41,    264,    0.0,    5.6,   0.00,   0.00,  996.3,    0.5, -999.0
22-10-2023, 00:10:51,    264,    0.0,    5.6,   0.00,   0.00,  996.3,    0.5, -999.0
22-10-2023, 00:11:01,    264,    0.0,    5.6,   0.00,   0.00,  996.3,    0.5, -999.0
22-10-2023, 00:11:11,    251,    1.2,    5.7,   0.00,   0.00,  996.5,    0.7, -999.0
22-10-2023, 00:11:21,    243,    0.7,    5.7,   0.00,   0.00,  996.4,    0.7, -999.0
22-10-2023, 00:11:31,    243,    0.0,    5.6,   0.00,   0.00,  996.3,    0.6, -999.0
22-10-2023, 00:11:41,    243,    0.0,    5.6,   0.00,   0.00,  996.3,    0.7, -999.0
22-10-2023, 00:11:51,    243,    0.0,    5.6,   0.00,   0.00,  996.3,    0.4, -999.0
22-10-2023, 00:12:01,    243,    0.0,    5.5,   0.00,   0.00,  996.3,    0.7, -999.0
22-10-2023, 00:12:11,    244,    0.0,    5.5,   0.00,   0.00,  996.3,    0.4, -999.0
22-10-2023, 00:12:21,    244,    0.0,    5.6,   0.00,   0.00,  996.3,    0.5, -999.0
22-10-2023, 00:12:31,    243,    0.0,    5.6,   0.00,   0.00,  996.3,    0.4, -999.0
22-10-2023, 00:12:41,    243,    0.0,    5.6,   0.00,   0.00,  996.3,    0.4, -999.0
22-10-2023, 00:12:51,    230,    0.8,    5.6,   0.00,   0.00,  996.5,    1.0, -999.0
22-10-2023, 00:13:01,    238,    0.5,    5.6,   0.00,   0.00,  996.4,    0.7, -999.0
22-10-2023, 00:13:11,    238,    0.0,    5.6,   0.00,   0.00,  996.3,    0.4, -999.0
22-10-2023, 00:13:21,    237,    0.0,    5.6,   0.00,   0.00,  996.3,    0.6, -999.0
22-10-2023, 00:13:31,    237,    0.0,    5.6,   0.00,   0.00,  996.3,    0.4, -999.0
22-10-2023, 00:13:40,    237,    0.0,    5.6,   0.00,   0.00,  996.3,    0.6, -999.0
22-10-2023, 00:13:51,    236,    0.0,    5.6,   0.00,   0.00,  996.3,    0.4, -999.0
22-10-2023, 00:14:01,    236,    0.0,    5.6,   0.00,   0.00,  996.3,    0.5, -999.0
22-10-2023, 00:14:11,    237,    0.0,    5.6,   0.00,   0.00,  996.4,    0.5, -999.0
22-10-2023, 00:14:20,    237,    0.0,    5.5,   0.00,   0.00,  996.4,    0.3, -999.0
22-10-2023, 00:14:31,    237,    0.0,    5.6,   0.00,   0.00,  996.3,    0.6, -999.0
22-10-2023, 00:14:41,    237,    0.2,    5.6,   0.00,   0.00,  996.4,    0.4, -999.0
22-10-2023, 00:14:50,    237,    0.0,    5.6,   0.00,   0.00,  996.3,    0.3, -999.0
22-10-2023, 00:15:00,    237,    0.0,    5.6,   0.00,   0.00,  996.3,    0.6, -999.0
22-10-2023, 00:15:11,    237,    0.0,    5.6,   0.00,   0.00,  996.3,    0.5, -999.0
22-10-2023, 00:15:20,    237,    0.0,    5.6,   0.00,   0.00,  996.3,    0.5, -999.0
22-10-2023, 00:15:30,    236,    0.0,    5.6,   0.00,   0.00,  996.3,    0.8, -999.0
22-10-2023, 00:15:40,    236,    0.0,    5.6,   0.00,   0.00,  996.4,    0.6, -999.0
22-10-2023, 00:15:51,    236,    0.0,    5.6,   0.00,   0.00,  996.3,    0.2, -999.0
22-10-2023, 00:16:00,    236,    0.0,    5.5,   0.00,   0.00,  996.4,    0.5, -999.0
22-10-2023, 00:16:10,    236,    0.0,    5.6,   0.00,   0.00,  996.4,    0.5, -999.0
22-10-2023, 00:16:21,    245,    0.0,    5.6,   0.00,   0.00,  996.4,    0.5, -999.0
22-10-2023, 00:16:30,    245,    0.0,    5.5,   0.00,   0.00,  996.3,    0.4, -999.0
22-10-2023, 00:16:40,    245,    0.0,    5.5,   0.00,   0.00,  996.3,    0.4, -999.0
22-10-2023, 00:16:50,    245,    0.0,    5.5,   0.00,   0.00,  996.3,    0.5, -999.0
22-10-2023, 00:17:00,    245,    0.0,    5.5,   0.00,   0.00,  996.3,    0.4, -999.0
22-10-2023, 00:17:10,    245,    0.0,    5.5,   0.00,   0.00,  996.3,    0.6, -999.0
22-10-2023, 00:17:20,    245,    0.0,    5.6,   0.00,   0.00,  996.3,    0.8, -999.0
22-10-2023, 00:17:30,    246,    0.0,    5.5,   0.00,   0.00,  996.4,    0.5, -999.0
22-10-2023, 00:17:40,    245,    0.0,    5.6,   0.00,   0.00,  996.4,    0.6, -999.0
22-10-2023, 00:17:50,    245,    0.0,    5.6,   0.00,   0.00,  996.4,    0.5, -999.0
22-10-2023, 00:18:00,    244,    0.0,    5.5,   0.00,   0.00,  996.4,    0.4, -999.0
22-10-2023, 00:18:10,    244,    0.0,    5.5,   0.00,   0.00,  996.4,    0.4, -999.0
22-10-2023, 00:18:20,    244,    0.0,    5.5,   0.00,   0.00,  996.4,    0.5, -999.0
22-10-2023, 00:18:30,    243,    0.0,    5.4,   0.00,   0.00,  996.4,    0.5, -999.0
22-10-2023, 00:18:40,    243,    0.0,    5.5,   0.00,   0.00,  996.4,    0.6, -999.0
22-10-2023, 00:18:50,    243,    0.0,    5.5,   0.00,   0.00,  996.3,    0.6, -999.0
22-10-2023, 00:19:00,    243,    0.0,    5.5,   0.00,   0.00,  996.4,    0.7, -999.0
22-10-2023, 00:19:10,    243,    0.0,    5.5,   0.00,   0.00,  996.4,    0.4, -999.0
22-10-2023, 00:19:20,    243,    0.0,    5.5,   0.00,   0.00,  996.4,    0.5, -999.0
22-10-2023, 00:19:30,    243,    0.0,    5.5,   0.00,   0.00,  996.4,    0.6, -999.0
22-10-2023, 00:19:40,    243,    0.0,    5.5,   0.00,   0.00,  996.4,    0.7, -999.0
22-10-2023, 00:19:50,    243,    0.0,    5.5,   0.00,   0.00,  996.4,    0.5, -999.0
22-10-2023, 00:20:00,    244,    0.1,    5.5,   0.00,   0.00,  996.5,    0.6, -999.0
22-10-2023, 00:20:10,    243,    0.0,    5.5,   0.00,   0.00,  996.5,    0.6, -999.0
22-10-2023, 00:20:20,    241,    0.0,    5.5,   0.00,   0.00,  996.4,    0.5, -999.0
22-10-2023, 00:20:30,    241,    0.0,    5.5,   0.00,   0.00,  996.4,    0.5, -999.0
22-10-2023, 00:20:40,    241,    0.0,    5.5,   0.00,   0.00,  996.5,    0.4, -999.0
22-10-2023, 00:20:50,    242,    0.0,    5.5,   0.00,   0.00,  996.5,    0.5, -999.0
22-10-2023, 00:21:00,    241,    0.0,    5.4,   0.00,   0.00,  996.4,    0.5, -999.0
22-10-2023, 00:21:10,    241,    0.2,    5.5,   0.00,   0.00,  996.5,    0.8, -999.0
22-10-2023, 00:21:19,    240,    0.0,    5.5,   0.00,   0.00,  996.4,    0.5, -999.0
22-10-2023, 00:21:30,    240,    0.0,    5.5,   0.00,   0.00,  996.4,    0.5, -999.0
22-10-2023, 00:21:40,    241,    0.0,    5.6,   0.00,   0.00,  996.5,    0.5, -999.0
22-10-2023, 00:21:50,    240,    0.0,    5.5,   0.00,   0.00,  996.5,    0.3, -999.0
22-10-2023, 00:21:59,    239,    0.0,    5.5,   0.00,   0.00,  996.5,    0.4, -999.0
22-10-2023, 00:22:10,    239,    0.0,    5.5,   0.00,   0.00,  996.4,    0.4, -999.0
22-10-2023, 00:22:20,    240,    0.0,    5.5,   0.00,   0.00,  996.5,    0.7, -999.0
22-10-2023, 00:22:29,    240,    0.0,    5.5,   0.00,   0.00,  996.5,    0.7, -999.0
22-10-2023, 00:22:39,    244,    0.0,    5.5,   0.00,   0.00,  996.5,    0.6, -999.0
22-10-2023, 00:22:50,    249,    0.2,    5.5,   0.00,   0.00,  996.5,    0.6, -999.0
22-10-2023, 00:23:00,    249,    0.0,    5.5,   0.00,   0.00,  996.5,    0.4, -999.0
22-10-2023, 00:23:09,    246,    0.0,    5.4,   0.00,   0.00,  996.4,    0.6, -999.0
22-10-2023, 00:23:19,    246,    0.0,    5.5,   0.00,   0.00,  996.4,    0.6, -999.0
22-10-2023, 00:23:30,    246,    0.0,    5.5,   0.00,   0.00,  996.4,    0.5, -999.0
22-10-2023, 00:23:39,    246,    0.0,    5.5,   0.00,   0.00,  996.5,    0.3, -999.0
22-10-2023, 00:23:49,    246,    0.0,    5.5,   0.00,   0.00,  996.5,    0.3, -999.0
22-10-2023, 00:23:59,    246,    0.0,    5.5,   0.00,   0.00,  996.5,    1.0, -999.0
22-10-2023, 00:24:10,    249,    0.0,    5.5,   0.00,   0.00,  996.5,    0.7, -999.0
22-10-2023, 00:24:19,    249,    0.0,    5.6,   0.00,   0.00,  996.5,    0.9, -999.0
22-10-2023, 00:24:29,    247,    0.0,    5.5,   0.00,   0.00,  996.5,    0.9, -999.0
22-10-2023, 00:24:39,    247,    0.0,    5.5,   0.00,   0.00,  996.4,    0.5, -999.0
22-10-2023, 00:24:49,    248,    0.0,    5.5,   0.00,   0.00,  996.4,    0.1, -999.0
22-10-2023, 00:24:59,    247,    0.0,    5.5,   0.00,   0.00,  996.5,    1.1, -999.0
22-10-2023, 00:25:09,    247,    0.8,    5.5,   0.00,   0.00,  996.6,    0.6, -999.0
22-10-2023, 00:25:19,    247,    0.0,    5.6,   0.00,   0.00,  996.5,    0.5, -999.0
22-10-2023, 00:25:29,    247,    0.0,    5.5,   0.00,   0.00,  996.5,    0.5, -999.0
22-10-2023, 00:25:39,    247,    0.0,    5.5,   0.00,   0.00,  996.5,    0.7, -999.0
22-10-2023, 00:25:49,    247,    0.0,    5.5,   0.00,   0.00,  996.5,    0.6, -999.0
22-10-2023, 00:25:59,    209,    0.0,    5.6,   0.00,   0.00,  996.5,    0.5, -999.0
22-10-2023, 00:26:09,    232,    0.0,    5.6,   0.00,   0.00,  996.5,    0.6, -999.0
22-10-2023, 00:26:19,    233,    0.0,    5.5,   0.00,   0.00,  996.5,    0.5, -999.0
22-10-2023, 00:26:29,    233,    0.0,    5.5,   0.00,   0.00,  996.5,    0.2, -999.0
22-10-2023, 00:26:39,    233,    0.0,    5.4,   0.00,   0.00,  996.5,    0.6, -999.0
22-10-2023, 00:26:49,    232,    0.0,    5.5,   0.00,   0.00,  996.5,    0.1, -999.0
22-10-2023, 00:26:59,    232,    0.0,    5.5,   0.00,   0.00,  996.5,    0.6, -999.0
22-10-2023, 00:27:09,    232,    0.0,    5.5,   0.00,   0.00,  996.5,    0.5, -999.0
22-10-2023, 00:27:19,    219,    0.2,    5.6,   0.00,   0.00,  996.6,    0.6, -999.0
22-10-2023, 00:27:29,    220,    0.0,    5.5,   0.00,   0.00,  996.5,    0.4, -999.0
22-10-2023, 00:27:39,    220,    0.0,    5.6,   0.00,   0.00,  996.6,    0.7, -999.0
22-10-2023, 00:27:49,    220,    0.0,    5.5,   0.00,   0.00,  996.5,    0.5, -999.0
22-10-2023, 00:27:59,    220,    0.0,    5.5,   0.00,   0.00,  996.5,    0.6, -999.0
22-10-2023, 00:28:09,    219,    0.0,    5.6,   0.00,   0.00,  996.4,    0.5, -999.0
22-10-2023, 00:28:19,    220,    0.2,    5.6,   0.00,   0.00,  996.5,    0.8, -999.0
22-10-2023, 00:28:29,    228,    0.5,    5.6,   0.00,   0.00,  996.6,    0.8, -999.0
22-10-2023, 00:28:39,    228,    0.0,    5.5,   0.00,   0.00,  996.5,    0.4, -999.0
22-10-2023, 00:28:49,    228,    0.0,    5.5,   0.00,   0.00,  996.5,    0.8, -999.0
22-10-2023, 00:28:59,    228,    0.0,    5.6,   0.00,   0.00,  996.5,    0.7, -999.0
22-10-2023, 00:29:08,    228,    0.0,    5.6,   0.00,   0.00,  996.5,    0.7, -999.0
22-10-2023, 00:29:19,    228,    0.0,    5.6,   0.00,   0.00,  996.5,    0.6, -999.0
22-10-2023, 00:29:29,    229,    0.0,    5.5,   0.00,   0.00,  996.5,    0.5, -999.0
22-10-2023, 00:29:39,    231,    0.0,    5.6,   0.00,   0.00,  996.5,    0.4, -999.0
22-10-2023, 00:29:48,    230,    0.0,    5.6,   0.00,   0.00,  996.5,    0.1, -999.0
22-10-2023, 00:29:59,    231,    0.0,    5.5,   0.00,   0.00,  996.5,    0.0, -999.0
22-10-2023, 00:30:09,    231,    0.0,    5.6,   0.00,   0.00,  996.5,    0.4, -999.0
22-10-2023, 00:30:18,    231,    0.0,    5.6,   0.00,   0.00,  996.5,    0.1, -999.0
22-10-2023, 00:30:29,    231,    0.0,    5.6,   0.00,   0.00,  996.5,    0.4, -999.0
22-10-2023, 00:30:39,    231,    0.0,    5.6,   0.00,   0.00,  996.5,    0.5, -999.0
22-10-2023, 00:30:48,    231,    0.0,    5.6,   0.00,   0.00,  996.5,    0.6, -999.0
22-10-2023, 00:30:58,    231,    0.0,    5.6,   0.00,   0.00,  996.5,    0.7, -999.0
22-10-2023, 00:31:09,    231,    0.0,    5.6,   0.00,   0.00,  996.5,    1.0, -999.0
22-10-2023, 00:31:19,    231,    0.0,    5.6,   0.00,   0.00,  996.5,    0.7, -999.0
22-10-2023, 00:31:28,    238,    0.0,    5.6,   0.00,   0.00,  996.5,    0.8, -999.0
22-10-2023, 00:31:38,    238,    0.6,    5.6,   0.00,   0.00,  996.6,    0.8, -999.0
22-10-2023, 00:31:49,    237,    0.0,    5.6,   0.00,   0.00,  996.5,    0.4, -999.0
22-10-2023, 00:31:58,    238,    0.0,    5.6,   0.00,   0.00,  996.5,    0.9, -999.0
22-10-2023, 00:32:08,    238,    0.0,    5.6,   0.00,   0.00,  996.5,    0.2, -999.0
22-10-2023, 00:32:18,    238,    0.0,    5.6,   0.00,   0.00,  996.5,    0.8, -999.0
22-10-2023, 00:32:28,    236,    0.0,    5.6,   0.00,   0.00,  996.5,    0.7, -999.0
22-10-2023, 00:32:38,    236,    0.0,    5.6,   0.00,   0.00,  996.5,    0.6, -999.0
22-10-2023, 00:32:48,    236,    0.0,    5.6,   0.00,   0.00,  996.5,    0.9, -999.0
22-10-2023, 00:32:58,    236,    0.0,    5.6,   0.00,   0.00,  996.5,    0.5, -999.0
22-10-2023, 00:33:08,    238,    0.0,    5.6,   0.00,   0.00,  996.5,    0.6, -999.0
22-10-2023, 00:33:18,    238,    0.0,    5.5,   0.00,   0.00,  996.5,    0.5, -999.0
22-10-2023, 00:33:28,    238,    0.0,    5.6,   0.00,   0.00,  996.5,    0.5, -999.0
22-10-2023, 00:33:38,    238,    0.0,    5.6,   0.00,   0.00,  996.6,    0.5, -999.0
22-10-2023, 00:33:48,    238,    0.0,    5.6,   0.00,   0.00,  996.6,    0.6, -999.0
22-10-2023, 00:33:58,    236,    0.4,    5.6,   0.00,   0.00,  996.6,    0.9, -999.0
22-10-2023, 00:34:08,    206,    1.1,    5.6,   0.00,   0.00,  996.7,    1.1, -999.0
22-10-2023, 00:34:18,    206,    0.0,    5.6,   0.00,   0.00,  996.6,    0.6, -999.0
22-10-2023, 00:34:28,    207,    0.0,    5.6,   0.00,   0.00,  996.5,    0.5, -999.0
22-10-2023, 00:34:38,    206,    0.0,    5.6,   0.00,   0.00,  996.5,    0.5, -999.0
22-10-2023, 00:34:48,    207,    0.0,    5.6,   0.00,   0.00,  996.5,    0.6, -999.0
22-10-2023, 00:34:58,    206,    0.0,    5.6,   0.00,   0.00,  996.5,    0.5, -999.0
22-10-2023, 00:35:08,    262,    0.1,    5.6,   0.00,   0.00,  996.6,    0.5, -999.0
22-10-2023, 00:35:18,    262,    0.3,    5.7,   0.00,   0.00,  996.6,    0.4, -999.0
22-10-2023, 00:35:28,    262,    0.0,    5.6,   0.00,   0.00,  996.5,    0.6, -999.0
22-10-2023, 00:35:38,    262,    0.0,    5.6,   0.00,   0.00,  996.5,    0.6, -999.0
22-10-2023, 00:35:48,    262,    0.0,    5.6,   0.00,   0.00,  996.5,    0.3, -999.0
22-10-2023, 00:35:58,    262,    0.0,    5.7,   0.00,   0.00,  996.5,    0.5, -999.0
22-10-2023, 00:36:08,    262,    0.0,    5.6,   0.00,   0.00,  996.5,    0.6, -999.0
22-10-2023, 00:36:18,    262,    0.0,    5.6,   0.00,   0.00,  996.5,    0.6, -999.0
22-10-2023, 00:36:28,    261,    0.0,    5.5,   0.00,   0.00,  996.5,    0.6, -999.0
22-10-2023, 00:36:38,    262,    0.0,    5.5,   0.00,   0.00,  996.5,    0.5, -999.0
22-10-2023, 00:36:48,    263,    0.0,    5.6,   0.00,   0.00,  996.5,    0.6, -999.0
22-10-2023, 00:36:58,    262,    0.0,    5.5,   0.00,   0.00,  996.6,    0.4, -999.0
22-10-2023, 00:37:08,    264,    0.0,    5.6,   0.00,   0.00,  996.6,    0.4, -999.0
22-10-2023, 00:37:18,    260,    0.0,    5.6,   0.00,   0.00,  996.6,    0.5, -999.0
22-10-2023, 00:37:27,    260,    0.0,    5.6,   0.00,   0.00,  996.6,    0.7, -999.0
22-10-2023, 00:37:38,    260,    0.0,    5.6,   0.00,   0.00,  996.6,    0.5, -999.0
22-10-2023, 00:37:48,    260,    0.0,    5.6,   0.00,   0.00,  996.5,    0.4, -999.0
22-10-2023, 00:37:58,    260,    0.0,    5.6,   0.00,   0.00,  996.5,    0.4, -999.0
22-10-2023, 00:38:07,    260,    0.0,    5.6,   0.00,   0.00,  996.6,    0.4, -999.0
22-10-2023, 00:38:18,    261,    0.0,    5.6,   0.00,   0.00,  996.6,    0.5, -999.0
22-10-2023, 00:38:28,    261,    0.0,    5.6,   0.00,   0.00,  996.5,    0.5, -999.0
22-10-2023, 00:38:37,    261,    0.0,    5.6,   0.00,   0.00,  996.6,    0.5, -999.0
22-10-2023, 00:38:47,    262,    0.0,    5.7,   0.00,   0.00,  996.6,    0.6, -999.0
22-10-2023, 00:38:58,    263,    0.0,    5.7,   0.00,   0.00,  996.5,    0.7, -999.0
22-10-2023, 00:39:07,    262,    0.0,    5.6,   0.00,   0.00,  996.5,    0.4, -999.0
22-10-2023, 00:39:17,    263,    0.0,    5.6,   0.00,   0.00,  996.6,    0.7, -999.0
22-10-2023, 00:39:27,    260,    0.0,    5.6,   0.00,   0.00,  996.6,    0.5, -999.0
22-10-2023, 00:39:38,    260,    0.0,    5.6,   0.00,   0.00,  996.6,    0.5, -999.0
22-10-2023, 00:39:47,    260,    0.0,    5.6,   0.00,   0.00,  996.6,    0.5, -999.0
22-10-2023, 00:39:57,    260,    0.0,    5.6,   0.00,   0.00,  996.6,    0.5, -999.0
22-10-2023, 00:40:07,    260,    0.0,    5.6,   0.00,   0.00,  996.6,    0.5, -999.0
22-10-2023, 00:40:17,    259,    0.0,    5.6,   0.00,   0.00,  996.6,    0.5, -999.0
22-10-2023, 00:40:27,    237,    0.0,    5.6,   0.00,   0.00,  996.6,    0.5, -999.0
22-10-2023, 00:40:37,    236,    0.0,    5.6,   0.00,   0.00,  996.6,    0.5, -999.0
22-10-2023, 00:40:47,    245,    0.0,    5.7,   0.00,   0.00,  996.6,    0.5, -999.0
22-10-2023, 00:40:57,    254,    0.7,    5.7,   0.00,   0.00,  996.7,    0.7, -999.0
22-10-2023, 00:41:07,    242,    2.0,    5.8,   0.00,   0.00,  996.7,    0.7, -999.0
22-10-2023, 00:41:17,    247,    0.5,    5.7,   0.00,   0.00,  996.7,    0.6, -999.0
22-10-2023, 00:41:27,    247,    0.0,    5.7,   0.00,   0.00,  996.6,    0.5, -999.0
22-10-2023, 00:41:37,    247,    0.0,    5.6,   0.00,   0.00,  996.6,    0.6, -999.0
22-10-2023, 00:41:47,    247,    0.0,    5.7,   0.00,   0.00,  996.6,    0.6, -999.0
22-10-2023, 00:41:57,    247,    0.0,    5.7,   0.00,   0.00,  996.6,    0.4, -999.0
22-10-2023, 00:42:07,    247,    0.0,    5.6,   0.00,   0.00,  996.6,    0.4, -999.0
22-10-2023, 00:42:17,    247,    0.0,    5.7,   0.00,   0.00,  996.7,    0.4, -999.0
22-10-2023, 00:42:27,    247,    0.0,    5.7,   0.00,   0.00,  996.6,    0.4, -999.0
22-10-2023, 00:42:37,    247,    0.0,    5.6,   0.00,   0.00,  996.6,    0.5, -999.0
22-10-2023, 00:42:47,    247,    0.0,    5.7,   0.00,   0.00,  996.6,    0.7, -999.0
22-10-2023, 00:42:57,    247,    0.0,    5.7,   0.00,   0.00,  996.7,    0.5, -999.0
22-10-2023, 00:43:07,    247,    0.0,    5.7,   0.00,   0.00,  996.7,    0.5, -999.0
22-10-2023, 00:43:17,    247,    0.0,    5.7,   0.00,   0.00,  996.7,    0.7, -999.0
22-10-2023, 00:43:27,    247,    0.0,    5.7,   0.00,   0.00,  996.7,    0.6, -999.0
22-10-2023, 00:43:37,    230,    0.0,    5.6,   0.00,   0.00,  996.7,    0.5, -999.0
22-10-2023, 00:43:47,    238,    0.0,    5.6,   0.00,   0.00,  996.7,    0.6, -999.0
22-10-2023, 00:43:57,    238,    0.0,    5.7,   0.00,   0.00,  996.7,    0.5, -999.0
22-10-2023, 00:44:07,    244,    0.2,    5.7,   0.00,   0.00,  996.7,    0.3, -999.0
22-10-2023, 00:44:17,    266,    1.4,    5.8,   0.00,   0.00,  996.8,    0.6, -999.0
22-10-2023, 00:44:27,    223,    0.3,    5.7,   0.00,   0.00,  996.7,    0.4, -999.0
22-10-2023, 00:44:37,    224,    0.0,    5.6,   0.00,   0.00,  996.7,    0.6, -999.0
22-10-2023, 00:44:47,    223,    0.0,    5.7,   0.00,   0.00,  996.7,    0.3, -999.0
22-10-2023, 00:44:57,    216,    0.0,    5.7,   0.00,   0.00,  996.7,    0.4, -999.0
22-10-2023, 00:45:07,    216,    0.0,    5.8,   0.00,   0.00,  996.7,    0.7, -999.0
22-10-2023, 00:45:16,    216,    0.0,    5.7,   0.00,   0.00,  996.7,    0.4, -999.0
22-10-2023, 00:45:27,    216,    0.0,    5.7,   0.00,   0.00,  996.7,    0.6, -999.0
22-10-2023, 00:45:37,    259,    0.1,    5.7,   0.00,   0.00,  996.7,    0.3, -999.0
22-10-2023, 00:45:47,    260,    0.0,    5.7,   0.00,   0.00,  996.7,    0.7, -999.0
22-10-2023, 00:45:56,    261,    0.0,    5.7,   0.00,   0.00,  996.7,    0.4, -999.0
22-10-2023, 00:46:07,    260,    0.0,    5.6,   0.00,   0.00,  996.7,    0.4, -999.0
22-10-2023, 00:46:17,    260,    0.0,    5.7,   0.00,   0.00,  996.7,    0.4, -999.0
22-10-2023, 00:46:26,    260,    0.0,    5.7,   0.00,   0.00,  996.7,    0.4, -999.0
22-10-2023, 00:46:36,    260,    0.0,    5.5,   0.00,   0.00,  996.7,    0.5, -999.0
22-10-2023, 00:46:47,    258,    0.0,    5.7,   0.00,   0.00,  996.7,    0.4, -999.0